• In France
  • List of Countries
  • For 7 days
  • Water Temperature
  • Satellite Maps
  • Weather Map
  • Weather Widgets
  • user-avatar
    Login

    Hourly Weather Nikoia

    Today, 18 December, Monday

    Time Temperature Precipitation Wind Pressure Humidity
    00:00 +26°C° 0 mm 6 mps 745 mmHg 75%
    01:00 +26°C° 0 mm 5 mps 745 mmHg 76%
    02:00 +26°C° 0 mm 4 mps 745 mmHg 77%
    03:00 +26°C° 0 mm 3 mps 745 mmHg 78%
    04:00 +25°C° 0 mm 3 mps 745 mmHg 79%
    05:00 +25°C° 0 mm 3 mps 745 mmHg 80%
    06:00 +25°C° 0 mm 4 mps 746 mmHg 78%
    07:00 +27°C° 0 mm 4 mps 746 mmHg 74%
    08:00 +29°C° 0 mm 4 mps 746 mmHg 69%
    09:00 +30°C° 0 mm 5 mps 746 mmHg 64%
    10:00 +32°C° 0 mm 5 mps 746 mmHg 60%
    11:00 +33°C° 0 mm 5 mps 746 mmHg 56%
    12:00 +34°C° 0 mm 5 mps 746 mmHg 52%
    13:00 +34°C° 0 mm 5 mps 745 mmHg 53%
    14:00 +34°C° 0 mm 5 mps 745 mmHg 54%
    15:00 +33°C° 0 mm 4 mps 744 mmHg 55%
    16:00 +30°C° 0 mm 4 mps 745 mmHg 62%
    17:00 +29°C° 0 mm 3 mps 745 mmHg 69%
    18:00 +27°C° 0 mm 3 mps 745 mmHg 76%
    19:00 +26°C° 0 mm 3 mps 745 mmHg 77%
    20:00 +26°C° 0 mm 3 mps 746 mmHg 79%
    21:00 +25°C° 0 mm 3 mps 747 mmHg 80%
    22:00 +25°C° 0 mm 3 mps 747 mmHg 81%
    23:00 +25°C° 0 mm 3 mps 747 mmHg 82%

    Tomorrow, 19 December, Tuesday

    Time Temperature Precipitation Wind Pressure Humidity
    00:00 +25°C° 0 mm 3 mps 747 mmHg 82%
    01:00 +25°C° 0 mm 3 mps 746 mmHg 83%
    02:00 +24°C° 0 mm 2 mps 746 mmHg 84%
    03:00 +24°C° 0 mm 2 mps 746 mmHg 86%
    04:00 +24°C° 0 mm 2 mps 746 mmHg 86%
    05:00 +24°C° 0 mm 2 mps 746 mmHg 86%
    06:00 +24°C° 0 mm 2 mps 746 mmHg 87%
    07:00 +26°C° 0 mm 3 mps 747 mmHg 79%
    08:00 +28°C° 0 mm 3 mps 747 mmHg 71%
    09:00 +30°C° 0 mm 4 mps 747 mmHg 63%
    10:00 +32°C° 0 mm 4 mps 747 mmHg 59%
    11:00 +33°C° 0 mm 4 mps 747 mmHg 54%
    12:00 +35°C° 0 mm 4 mps 746 mmHg 49%
    13:00 +34°C° 0 mm 4 mps 746 mmHg 51%
    14:00 +34°C° 0 mm 4 mps 745 mmHg 52%
    15:00 +34°C° 0 mm 4 mps 744 mmHg 53%
    16:00 +32°C° 0 mm 4 mps 744 mmHg 61%
    17:00 +29°C° 0 mm 3 mps 744 mmHg 69%
    18:00 +27°C° 0 mm 3 mps 745 mmHg 76%
    19:00 +26°C° 0 mm 3 mps 745 mmHg 78%
    20:00 +26°C° 0 mm 3 mps 746 mmHg 79%
    21:00 +26°C° 0 mm 3 mps 747 mmHg 81%
    22:00 +25°C° 0 mm 3 mps 746 mmHg 82%
    23:00 +25°C° 0 mm 3 mps 746 mmHg 83%

    Day after tomorrow, 20 December, Wednesday

    Time Temperature Precipitation Wind Pressure Humidity
    00:00 +25°C° 0 mm 3 mps 746 mmHg 84%
    01:00 +25°C° 0 mm 3 mps 746 mmHg 84%
    02:00 +25°C° 0 mm 3 mps 746 mmHg 85%
    03:00 +25°C° 0 mm 3 mps 745 mmHg 85%
    04:00 +25°C° 0 mm 3 mps 745 mmHg 85%
    05:00 +25°C° 0 mm 3 mps 746 mmHg 85%
    06:00 +24°C° 0 mm 2 mps 746 mmHg 85%
    07:00 +26°C° 0 mm 3 mps 746 mmHg 78%
    08:00 +28°C° 0 mm 4 mps 747 mmHg 72%
    09:00 +30°C° 0 mm 4 mps 747 mmHg 66%
    10:00 +32°C° 0 mm 4 mps 747 mmHg 63%
    11:00 +33°C° 0 mm 4 mps 747 mmHg 60%
    12:00 +34°C° 0 mm 4 mps 746 mmHg 57%
    13:00 +33°C° 0.1 mm 4 mps 745 mmHg 58%
    14:00 +33°C° 0.1 mm 4 mps 745 mmHg 60%
    15:00 +33°C° 0.1 mm 4 mps 744 mmHg 61%
    16:00 +30°C° 0.1 mm 3 mps 744 mmHg 67%
    17:00 +29°C° 0.1 mm 3 mps 744 mmHg 73%
    18:00 +27°C° 0.1 mm 3 mps 744 mmHg 79%
    19:00 +27°C° 0 mm 3 mps 745 mmHg 80%
    20:00 +26°C° 0 mm 3 mps 745 mmHg 81%
    21:00 +26°C° 0 mm 3 mps 746 mmHg 82%
    22:00 +26°C° 0 mm 3 mps 746 mmHg 82%
    23:00 +26°C° 0 mm 2 mps 746 mmHg 83%

    21 December, Thursday

    Time Temperature Precipitation Wind Pressure Humidity
    00:00 +25°C° 0 mm 2 mps 745 mmHg 84%
    01:00 +25°C° 0 mm 2 mps 745 mmHg 84%
    02:00 +25°C° 0 mm 3 mps 745 mmHg 84%
    03:00 +25°C° 0 mm 3 mps 744 mmHg 84%
    04:00 +25°C° 0 mm 3 mps 745 mmHg 83%
    05:00 +25°C° 0 mm 3 mps 745 mmHg 83%
    06:00 +25°C° 0 mm 3 mps 745 mmHg 82%
    07:00 +27°C° 0 mm 4 mps 746 mmHg 76%
    08:00 +28°C° 0 mm 4 mps 746 mmHg 71%
    09:00 +30°C° 0 mm 5 mps 747 mmHg 65%
    10:00 +32°C° 0 mm 5 mps 747 mmHg 62%
    11:00 +33°C° 0 mm 5 mps 746 mmHg 58%
    12:00 +34°C° 0 mm 5 mps 746 mmHg 55%
    13:00 +34°C° 0 mm 4 mps 745 mmHg 56%
    14:00 +33°C° 0 mm 4 mps 744 mmHg 56%
    15:00 +33°C° 0 mm 4 mps 744 mmHg 57%
    16:00 +30°C° 0.1 mm 4 mps 744 mmHg 63%
    17:00 +29°C° 0.1 mm 3 mps 744 mmHg 68%
    18:00 +27°C° 0.1 mm 3 mps 745 mmHg 74%
    19:00 +27°C° 0 mm 2 mps 745 mmHg 76%
    20:00 +26°C° 0 mm 2 mps 746 mmHg 77%
    21:00 +26°C° 0 mm 2 mps 746 mmHg 78%
    22:00 +25°C° 0 mm 2 mps 746 mmHg 80%
    23:00 +25°C° 0 mm 2 mps 746 mmHg 81%

    22 December, Friday

    Time Temperature Precipitation Wind Pressure Humidity
    00:00 +25°C° 0 mm 2 mps 746 mmHg 82%
    01:00 +24°C° 0 mm 2 mps 746 mmHg 83%
    02:00 +24°C° 0 mm 2 mps 745 mmHg 84%
    03:00 +24°C° 0 mm 2 mps 745 mmHg 85%
    04:00 +24°C° 0 mm 2 mps 745 mmHg 85%
    05:00 +24°C° 0 mm 2 mps 745 mmHg 85%
    06:00 +24°C° 0 mm 2 mps 746 mmHg 85%
    07:00 +26°C° 0 mm 3 mps 746 mmHg 77%
    08:00 +28°C° 0 mm 3 mps 747 mmHg 70%
    09:00 +30°C° 0 mm 3 mps 747 mmHg 62%
    10:00 +31°C° 0 mm 3 mps 747 mmHg 59%
    11:00 +33°C° 0 mm 4 mps 746 mmHg 56%
    12:00 +34°C° 0 mm 4 mps 746 mmHg 53%
    13:00 +34°C° 0 mm 4 mps 745 mmHg 55%
    14:00 +33°C° 0 mm 4 mps 745 mmHg 57%
    15:00 +33°C° 0 mm 4 mps 744 mmHg 59%
    16:00 +31°C° 0.1 mm 3 mps 744 mmHg 65%
    17:00 +29°C° 0.1 mm 3 mps 745 mmHg 72%
    18:00 +27°C° 0.1 mm 2 mps 745 mmHg 78%
    19:00 +27°C° 0 mm 2 mps 746 mmHg 80%
    20:00 +26°C° 0 mm 1 mps 746 mmHg 83%
    21:00 +26°C° 0 mm 1 mps 747 mmHg 85%
    22:00 +25°C° 0 mm 1 mps 747 mmHg 86%
    23:00 +25°C° 0 mm 1 mps 746 mmHg 87%

    23 December, Saturday

    Time Temperature Precipitation Wind Pressure Humidity
    00:00 +24°C° 0 mm 1 mps 746 mmHg 88%
    01:00 +24°C° 0 mm 2 mps 746 mmHg 89%
    02:00 +24°C° 0 mm 2 mps 746 mmHg 89%
    03:00 +23°C° 0 mm 2 mps 745 mmHg 90%
    04:00 +23°C° 0 mm 2 mps 746 mmHg 90%
    05:00 +23°C° 0 mm 2 mps 746 mmHg 89%
    06:00 +23°C° 0 mm 2 mps 746 mmHg 89%
    07:00 +25°C° 0 mm 3 mps 747 mmHg 81%
    08:00 +28°C° 0 mm 3 mps 747 mmHg 73%
    09:00 +30°C° 0 mm 3 mps 748 mmHg 66%
    10:00 +31°C° 0 mm 3 mps 747 mmHg 62%
    11:00 +33°C° 0 mm 3 mps 746 mmHg 58%
    12:00 +34°C° 0 mm 3 mps 746 mmHg 54%
    13:00 +34°C° 0.1 mm 3 mps 745 mmHg 55%
    14:00 +33°C° 0.1 mm 4 mps 745 mmHg 57%
    15:00 +33°C° 0.1 mm 4 mps 744 mmHg 59%
    16:00 +30°C° 0.2 mm 3 mps 744 mmHg 65%
    17:00 +29°C° 0.2 mm 3 mps 745 mmHg 71%
    18:00 +27°C° 0.2 mm 3 mps 745 mmHg 77%
    19:00 +27°C° 0 mm 3 mps 745 mmHg 78%
    20:00 +26°C° 0 mm 2 mps 746 mmHg 79%
    21:00 +26°C° 0 mm 2 mps 746 mmHg 81%
    22:00 +25°C° 0 mm 2 mps 746 mmHg 81%
    23:00 +25°C° 0 mm 2 mps 746 mmHg 82%
    Show more